Data for 01/03/2018

Time Sea-Level Adjusted Pressure Absolute Pressure Temperature Relative Humidity Dew Point   
(mb) (inHg) (mb) (inHg) (C) (F) (%) (C) (F)
00:05 1028 30.36 857 25.31 -10.6 12.9 80 -13.5 7.7
00:10 1028 30.36 857 25.31 -10.1 13.9 78 -13.2 8.2
00:15 1028 30.36 857 25.31 -9.8 14.4 76 -13.3 8.1
00:20 1028 30.36 857 25.31 -9.3 15.3 73 -13.2 8.3
00:25 1028 30.36 857 25.31 -9.1 15.6 72 -13.2 8.2
00:30 1028 30.36 857 25.31 -9 15.8 72 -13.2 8.2
00:35 1028 30.36 857 25.31 -9.2 15.5 76 -12.7 9.2
00:40 1028 30.36 857 25.31 -9.1 15.6 72 -13.3 8.1
00:45 1028 30.36 857 25.31 -9.1 15.7 72 -13.3 8
00:50 1028 30.36 857 25.31 -9.1 15.6 71 -13.4 7.9
00:55 1028 30.36 857 25.31 -9.8 14.3 73 -13.7 7.3
01:00 1028 30.36 857 25.31 -10.5 13.1 76 -14 6.7
01:05 1028 30.36 857 25.31 -10.8 12.5 83 -13.2 8.2
01:10 1028 30.36 857 25.31 -9.9 14.3 76 -13.4 7.9
01:15 1028 30.36 857 25.31 -9.8 14.4 72 -13.9 7
01:20 1028 30.36 857 25.31 -9.9 14.2 72 -14.1 6.6
01:25 1028 30.36 857 25.31 -9.9 14.2 72 -14.1 6.6
01:30 1027 30.33 857 25.31 -9.6 14.8 68 -14.4 6
01:35 1028 30.36 857 25.31 -9.4 15 69 -14.1 6.7
01:40 1028 30.36 857 25.31 -9.9 14.2 72 -14 6.8
01:45 1028 30.36 857 25.31 -10.3 13.5 73 -14.1 6.5
01:50 1028 30.36 857 25.31 -10.3 13.5 75 -13.9 7
01:55 1028 30.36 857 25.31 -10.1 13.9 73 -14 6.8
02:00 1028 30.36 857 25.31 -9.9 14.3 73 -13.8 7.1
02:05 1027 30.33 857 25.31 -9.7 14.5 73 -13.7 7.4
02:10 1027 30.33 857 25.31 -9.7 14.6 76 -13.1 8.5
02:15 1027 30.33 857 25.31 -10.1 13.9 78 -13.3 8.1
02:20 1027 30.33 856 25.28 -10.7 12.7 82 -13.1 8.3
02:25 1027 30.33 856 25.28 -11.2 11.9 84 -13.3 8
02:30 1027 30.33 856 25.28 -11.1 12.1 83 -13.5 7.8
02:35 1027 30.33 856 25.28 -10.8 12.6 84 -13 8.5
02:40 1027 30.33 856 25.28 -10.3 13.4 80 -13.1 8.4
02:45 1027 30.33 856 25.28 -10.1 13.8 80 -12.9 8.8
02:50 1027 30.33 856 25.28 -9.9 14.2 80 -12.8 9
02:55 1027 30.33 856 25.28 -9.1 15.7 78 -12.3 9.9
03:00 1026 30.3 856 25.28 -8.7 16.4 73 -12.7 9.2
03:05 1026 30.3 855 25.25 -9 15.8 75 -12.6 9.3
03:10 1026 30.3 855 25.25 -9.2 15.4 76 -12.7 9.2
03:15 1026 30.3 855 25.25 -9.1 15.7 75 -12.7 9.1
03:20 1026 30.3 855 25.25 -9.1 15.7 75 -12.6 9.3
03:25 1026 30.3 855 25.25 -8.4 16.8 71 -12.8 9
03:30 1026 30.3 855 25.25 -8.6 16.5 71 -12.9 8.7
03:35 1026 30.3 855 25.25 -8.8 16.2 73 -12.8 9
03:40 1026 30.3 855 25.25 -8.4 16.9 72 -12.6 9.4
03:45 1026 30.3 855 25.25 -7.9 17.7 71 -12.3 9.9
03:50 1026 30.3 855 25.25 -7.6 18.4 69 -12.3 9.9
03:55 1025 30.27 855 25.25 -7.5 18.5 70 -12 10.3
04:00 1025 30.27 855 25.25 -7.7 18.2 69 -12.5 9.5
04:05 1026 30.3 855 25.25 -8.1 17.4 70 -12.7 9.1
04:10 1026 30.3 855 25.25 -9.4 15.2 75 -12.9 8.7
04:15 1025 30.27 855 25.25 -9.6 14.7 75 -13.3 8.1
04:20 1025 30.27 855 25.25 -10.1 13.8 76 -13.5 7.7
04:25 1025 30.27 855 25.25 -10.7 12.7 79 -13.7 7.3
04:30 1026 30.3 855 25.25 -10.9 12.3 79 -13.9 7
04:35 1026 30.3 855 25.25 -10.8 12.5 78 -13.9 6.9
04:40 1026 30.3 855 25.25 -11 12.2 78 -14.1 6.6
04:45 1026 30.3 855 25.25 -11.3 11.7 78 -14.4 6.1
04:50 1026 30.3 855 25.25 -11.3 11.8 77 -14.5 5.9
04:55 1026 30.3 855 25.25 -11.3 11.7 77 -14.6 5.8
05:00 1026 30.3 855 25.25 -11.5 11.4 78 -14.6 5.7
05:05 1026 30.3 855 25.25 -11.9 10.6 81 -14.5 5.9
05:10 1026 30.3 855 25.25 -11.8 10.8 81 -14.4 6.1
05:15 1026 30.3 855 25.25 -11.9 10.7 80 -14.7 5.6
05:20 1026 30.3 855 25.25 -12 10.3 80 -14.7 5.5
05:25 1026 30.3 855 25.25 -11.9 10.6 79 -14.8 5.4
05:30 1026 30.3 855 25.25 -11.7 11 80 -14.5 6
05:35 1026 30.3 855 25.25 -11.7 11 79 -14.6 5.7
05:40 1026 30.3 855 25.25 -12 10.4 80 -14.7 5.5
05:45 1026 30.3 855 25.25 -11.6 11.1 80 -14.4 6
05:50 1026 30.3 855 25.25 -11.5 11.3 77 -14.7 5.5
05:55 1025 30.27 855 25.25 -12.1 10.3 80 -14.8 5.3
06:00 1025 30.27 855 25.25 -12.1 10.2 82 -14.7 5.6
06:05 1026 30.3 855 25.25 -11.8 10.8 81 -14.5 6
06:10 1025 30.27 855 25.25 -11.7 11 81 -14.3 6.3
06:15 1025 30.27 855 25.25 -11.6 11.2 82 -14.1 6.6
06:20 1025 30.27 854 25.22 -10.9 12.4 77 -14.1 6.6
06:25 1025 30.27 854 25.22 -10.5 13.1 75 -14.1 6.7
06:30 1025 30.27 855 25.25 -10.1 13.9 75 -13.7 7.3
06:35 1025 30.27 854 25.22 -10 13.9 75 -13.7 7.3
06:40 1025 30.27 854 25.22 -9.9 14.1 74 -13.7 7.3
06:45 1025 30.27 854 25.22 -9.9 14.3 74 -13.6 7.5
06:50 1025 30.27 854 25.22 -9.6 14.7 74 -13.4 7.8
06:55 1025 30.27 854 25.22 -9.4 15.2 74 -13.2 8.2
07:00 1025 30.27 854 25.22 -9 15.8 71 -13.3 8.1
07:05 1025 30.27 854 25.22 -8.9 15.9 70 -13.4 7.9
07:10 1025 30.27 854 25.22 -8.6 16.5 68 -13.6 7.6
07:15 1025 30.27 854 25.22 -8.1 17.4 67 -13.3 8.1
07:20 1025 30.27 854 25.22 -7.3 18.8 67 -12.5 9.4
07:25 1025 30.27 854 25.22 -7.1 19.3 67 -12.3 9.9
07:30 1025 30.27 854 25.22 -6.9 19.6 66 -12.2 10.1
07:35 1025 30.27 854 25.22 -6.9 19.7 66 -12.3 9.9
07:40 1025 30.27 854 25.22 -7 19.3 67 -12.2 10
07:45 1025 30.27 854 25.22 -7.6 18.4 70 -12.1 10.2
07:50 1025 30.27 855 25.25 -7.8 17.9 71 -12.2 10.1
07:55 1026 30.3 855 25.25 -7.7 18.2 71 -12 10.4
08:00 1026 30.3 855 25.25 -7.7 18.2 71 -12 10.4
08:05 1026 30.3 855 25.25 -8.3 17.1 73 -12.3 9.9
08:10 1026 30.3 855 25.25 -9.2 15.5 75 -12.8 9
08:15 1026 30.3 855 25.25 -9.4 15.2 76 -12.9 8.8
08:20 1026 30.3 855 25.25 -9.1 15.7 75 -12.7 9.2
08:25 1026 30.3 855 25.25 -8.8 16.2 76 -12.3 9.8
08:30 1026 30.3 855 25.25 -8.5 16.7 75 -12.2 10.1
08:35 1026 30.3 855 25.25 -8.5 16.8 75 -12.1 10.2
08:40 1026 30.3 855 25.25 -8.3 17.1 74 -12.2 10.1
08:45 1026 30.3 855 25.25 -8 17.6 74 -11.9 10.6
08:50 1026 30.3 855 25.25 -7.8 18 73 -11.8 10.7
08:55 1026 30.3 855 25.25 -7.7 18.1 73 -11.8 10.7
09:00 1026 30.3 855 25.25 -7.8 17.9 74 -11.7 10.9
09:05 1026 30.3 855 25.25 -7.8 17.9 74 -11.7 11
09:10 1026 30.3 855 25.25 -8.1 17.4 75 -11.9 10.6
09:15 1026 30.3 855 25.25 -8 17.6 74 -11.9 10.6
09:20 1026 30.3 855 25.25 -7.8 18.1 72 -11.9 10.5
09:25 1026 30.3 856 25.28 -7.5 18.6 69 -12.2 10.1
09:30 1026 30.3 856 25.28 -7.2 19 65 -12.8 9
09:35 1026 30.3 856 25.28 -6.9 19.6 63 -12.8 9
09:40 1027 30.33 856 25.28 -6.7 20 65 -12.2 10.1
09:45 1027 30.33 856 25.28 -6.7 19.9 64 -12.4 9.6
09:50 1026 30.3 856 25.28 -6.5 20.4 65 -11.9 10.5
09:55 1026 30.3 856 25.28 -6.1 20.9 64 -12 10.5
10:00 1026 30.3 855 25.25 -6.2 20.8 65 -11.7 11
10:05 1026 30.3 855 25.25 -6.2 20.8 65 -11.7 10.9
10:10 1026 30.3 855 25.25 -6 21.2 64 -11.7 10.9
10:15 1026 30.3 855 25.25 -5.8 21.6 64 -11.6 11.1
10:20 1026 30.3 855 25.25 -5.5 22.1 62 -11.6 11.1
10:25 1026 30.3 855 25.25 -5.2 22.7 62 -11.4 11.4
10:30 1026 30.3 855 25.25 -4.8 23.4 62 -11 12.2
10:35 1025 30.27 855 25.25 -4.6 23.8 61 -11 12.3
10:40 1025 30.27 854 25.22 -4.6 23.8 62 -10.8 12.6
10:45 1025 30.27 854 25.22 -4.4 24 63 -10.5 13
10:50 1025 30.27 854 25.22 -4.2 24.4 61 -10.6 12.9
10:55 1025 30.27 854 25.22 -4.1 24.6 63 -10.2 13.7
11:00 1025 30.27 854 25.22 -4.4 24 66 -9.9 14.2
11:05 1025 30.27 854 25.22 -4.4 24 67 -9.7 14.5
11:10 1025 30.27 854 25.22 -4.3 24.3 67 -9.5 14.9
11:15 1024 30.24 854 25.22 -4 24.8 68 -9.1 15.6
11:20 1024 30.24 854 25.22 -3.7 25.3 67 -9 15.8
11:25 1024 30.24 854 25.22 -3.5 25.8 67 -8.8 16.2
11:30 1024 30.24 853 25.19 -3.2 26.2 67 -8.6 16.6
11:35 1024 30.24 853 25.19 -2.9 26.9 66 -8.4 16.8
11:40 1024 30.24 853 25.19 -2.6 27.2 66 -8.2 17.2
11:45 1024 30.24 853 25.19 -2.7 27.1 67 -8.1 17.5
11:50 1024 30.24 853 25.19 -2.6 27.4 67 -7.8 17.9
11:55 1024 30.24 853 25.19 -2.2 28 68 -7.4 18.6
12:00 1024 30.24 853 25.19 -2.1 28.1 69 -7.1 19.1
12:05 1024 30.24 853 25.19 -2.2 28 70 -7 19.5
12:10 1024 30.24 853 25.19 -2.1 28.1 70 -7 19.4
12:15 1024 30.24 853 25.19 -1.9 28.6 68 -7.1 19.2
12:20 1024 30.24 853 25.19 -2 28.4 69 -6.9 19.6
12:25 1024 30.24 853 25.19 -1.9 28.5 68 -7 19.4
12:30 1024 30.24 853 25.19 -1.9 28.5 71 -6.5 20.2
12:35 1024 30.24 853 25.19 -2 28.5 71 -6.5 20.2
12:40 1024 30.24 853 25.19 -1.9 28.6 69 -6.9 19.6
12:45 1024 30.24 853 25.19 -2 28.4 69 -7 19.3
12:50 1024 30.24 853 25.19 -2.7 27.2 69 -7.6 18.3
12:55 1024 30.24 853 25.19 -3.2 26.3 71 -7.7 18.1
13:00 1024 30.24 853 25.19 -3.2 26.2 74 -7.3 18.9
13:05 1024 30.24 853 25.19 -3.5 25.7 72 -7.8 18
13:10 1024 30.24 853 25.19 -3.8 25.1 73 -8 17.6
13:15 1024 30.24 853 25.19 -4.7 23.6 75 -8.4 16.8
13:20 1024 30.24 853 25.19 -5.2 22.6 76 -8.8 16.2
13:25 1024 30.24 853 25.19 -5.8 21.6 78 -9 15.7
13:30 1024 30.24 853 25.19 -6 21.2 77 -9.4 15.2
13:35 1024 30.24 853 25.19 -5.9 21.3 78 -9.1 15.6
13:40 1024 30.24 853 25.19 -5.6 22 78 -8.8 16.1
13:45 1024 30.24 853 25.19 -5.5 22 80 -8.5 16.7
13:50 1024 30.24 853 25.19 -5.3 22.4 79 -8.5 16.7
13:55 1024 30.24 853 25.19 -5.1 22.9 78 -8.3 17
14:00 1024 30.24 853 25.19 -4.7 23.6 76 -8.3 17
14:05 1024 30.24 853 25.19 -4.4 24 75 -8.2 17.3
14:10 1024 30.24 853 25.19 -4.3 24.2 75 -8.1 17.5
14:15 1024 30.24 853 25.19 -4.3 24.2 76 -8 17.7
14:20 1024 30.24 853 25.19 -4.1 24.6 75 -7.9 17.8
14:25 1024 30.24 853 25.19 -4.4 24.1 77 -7.9 17.8
14:30 1024 30.24 853 25.19 -4.7 23.6 78 -7.9 17.8
14:35 1024 30.24 853 25.19 -4.6 23.7 78 -7.9 17.8
14:40 1024 30.24 853 25.19 -4.7 23.5 79 -7.8 18
14:45 1024 30.24 853 25.19 -4.7 23.6 80 -7.7 18.2
14:50 1024 30.24 853 25.19 -4.4 24.1 79 -7.5 18.5
14:55 1024 30.24 853 25.19 -4.3 24.3 79 -7.5 18.6
15:00 1024 30.24 853 25.19 -4.2 24.4 79 -7.3 18.8
15:05 1024 30.24 853 25.19 -4.1 24.6 79 -7.2 19
15:10 1024 30.24 853 25.19 -4 24.8 79 -7.2 19.1
15:15 1024 30.24 853 25.19 -3.9 25.1 79 -7 19.3
15:20 1024 30.24 853 25.19 -3.7 25.3 78 -7 19.4
15:25 1024 30.24 853 25.19 -3.8 25.1 79 -6.9 19.6
15:30 1024 30.24 853 25.19 -3.8 25.1 78 -7 19.3
15:35 1024 30.24 853 25.19 -3.6 25.5 79 -6.8 19.7
15:40 1024 30.24 853 25.19 -3.4 25.8 77 -6.8 19.7
15:45 1024 30.24 853 25.19 -3.4 25.9 78 -6.7 19.9
15:50 1024 30.24 853 25.19 -3.4 25.9 78 -6.7 19.9
15:55 1024 30.24 853 25.19 -3.4 25.9 77 -6.8 19.8
16:00 1024 30.24 853 25.19 -3.4 25.9 78 -6.7 19.9
16:05 1024 30.24 853 25.19 -3.6 25.6 78 -6.9 19.6
16:10 1024 30.24 853 25.19 -3.8 25.2 79 -7 19.4
16:15 1024 30.24 853 25.19 -3.8 25.2 77 -7.2 19.1
16:20 1024 30.24 853 25.19 -4.1 24.6 78 -7.4 18.6
16:25 1024 30.24 853 25.19 -4.7 23.6 80 -7.7 18.2
16:30 1024 30.24 853 25.19 -5 23 81 -7.7 18.1
16:35 1024 30.24 853 25.19 -4.9 23.1 80 -7.8 17.9
16:40 1024 30.24 853 25.19 -5 23.1 80 -7.9 17.8
16:45 1024 30.24 853 25.19 -4.8 23.3 80 -7.8 18
16:50 1024 30.24 853 25.19 -4.8 23.4 80 -7.8 18
16:55 1024 30.24 853 25.19 -4.8 23.4 80 -7.7 18.2
17:00 1024 30.24 853 25.19 -4.8 23.4 80 -7.7 18.2
17:05 1024 30.24 853 25.19 -4.7 23.5 80 -7.6 18.3
17:10 1024 30.24 853 25.19 -4.6 23.6 81 -7.5 18.6
17:15 1024 30.24 853 25.19 -4.6 23.7 81 -7.5 18.5
17:20 1024 30.24 853 25.19 -4.6 23.7 81 -7.4 18.6
17:25 1024 30.24 853 25.19 -4.5 23.8 80 -7.4 18.7
17:30 1024 30.24 853 25.19 -4.5 23.8 81 -7.4 18.7
17:35 1024 30.24 853 25.19 -4.6 23.8 81 -7.3 18.8
17:40 1024 30.24 853 25.19 -4.6 23.8 81 -7.3 18.9
17:45 1024 30.24 853 25.19 -4.5 23.9 81 -7.3 18.9
17:50 1024 30.24 853 25.19 -4.4 24.1 81 -7.3 18.9
17:55 1024 30.24 853 25.19 -4.4 24 80 -7.3 18.8
18:00 1024 30.24 853 25.19 -4.5 23.8 81 -7.4 18.7
18:05 1024 30.24 853 25.19 -4.6 23.6 81 -7.4 18.7
18:10 1024 30.24 853 25.19 -4.7 23.5 82 -7.4 18.6
18:15 1024 30.24 853 25.19 -5 23 83 -7.4 18.6
18:20 1024 30.24 853 25.19 -5.1 22.7 84 -7.5 18.5
18:25 1024 30.24 853 25.19 -5.2 22.6 84 -7.5 18.5
18:30 1024 30.24 853 25.19 -5.2 22.7 84 -7.4 18.7
18:35 1024 30.24 853 25.19 -5.2 22.7 84 -7.5 18.5
18:40 1024 30.24 853 25.19 -5.3 22.4 84 -7.6 18.4
18:45 1024 30.24 853 25.19 -5.4 22.4 84 -7.6 18.3
18:50 1024 30.24 853 25.19 -5.2 22.6 85 -7.4 18.7
18:55 1024 30.24 853 25.19 -5 22.9 84 -7.4 18.7
19:00 1024 30.24 853 25.19 -4.9 23.3 84 -7.1 19.1
19:05 1024 30.24 853 25.19 -4.7 23.5 85 -6.9 19.6
19:10 1024 30.24 853 25.19 -4.8 23.3 85 -7 19.4
19:15 1024 30.24 853 25.19 -4.8 23.3 85 -6.9 19.5
19:20 1024 30.24 853 25.19 -4.4 24.1 82 -7 19.5
19:25 1024 30.24 853 25.19 -3.9 25.1 78 -7.1 19.2
19:30 1024 30.24 853 25.19 -3.8 25.2 78 -7.1 19.2
19:35 1024 30.24 853 25.19 -4.2 24.5 80 -7.2 19.1
19:40 1024 30.24 853 25.19 -4.6 23.6 82 -7.3 18.9
19:45 1024 30.24 853 25.19 -4.8 23.4 83 -7.3 18.9
19:50 1024 30.24 853 25.19 -4.7 23.6 84 -7 19.4
19:55 1024 30.24 853 25.19 -4.4 24.2 84 -6.7 19.9
20:00 1024 30.24 853 25.19 -4 24.8 82 -6.6 20.1
20:05 1024 30.24 853 25.19 -4.1 24.6 83 -6.5 20.3
20:10 1024 30.24 853 25.19 -4.3 24.3 84 -6.5 20.3
20:15 1024 30.24 853 25.19 -3.7 25.3 81 -6.5 20.3
20:20 1024 30.24 853 25.19 -3.4 25.9 77 -6.8 19.7
20:25 1024 30.24 853 25.19 -3.3 26.1 77 -6.8 19.7
20:30 1024 30.24 853 25.19 -3.3 26.1 77 -6.8 19.7
20:35 1024 30.24 853 25.19 -3.4 25.8 79 -6.6 20.1
20:40 1024 30.24 854 25.22 -4 24.8 81 -6.8 19.8
20:45 1024 30.24 854 25.22 -4.5 24 83 -7 19.4
20:50 1024 30.24 854 25.22 -4.6 23.7 83 -7.1 19.1
20:55 1024 30.24 854 25.22 -4.6 23.7 83 -7.1 19.2
21:00 1024 30.24 854 25.22 -4.4 24 83 -6.9 19.6
21:05 1024 30.24 854 25.22 -4.7 23.6 83 -7.1 19.3
21:10 1024 30.24 854 25.22 -4.8 23.3 84 -7.2 19.1
21:15 1024 30.24 854 25.22 -4.8 23.3 84 -7.2 19.1
21:20 1024 30.24 854 25.22 -4.9 23.2 84 -7.2 19.1
21:25 1024 30.24 853 25.19 -4.8 23.3 85 -7 19.4
21:30 1024 30.24 853 25.19 -4.7 23.5 84 -7.1 19.3
21:35 1024 30.24 853 25.19 -4.7 23.5 85 -6.9 19.6
21:40 1024 30.24 853 25.19 -4.6 23.8 84 -6.9 19.6
21:45 1024 30.24 853 25.19 -4.6 23.8 84 -6.8 19.8
21:50 1024 30.24 853 25.19 -4.7 23.5 85 -6.9 19.6
21:55 1024 30.24 853 25.19 -4.9 23.2 86 -7 19.4
22:00 1024 30.24 853 25.19 -4.9 23.2 87 -6.8 19.7
22:05 1024 30.24 853 25.19 -4.8 23.4 86 -6.8 19.7
22:10 1024 30.24 853 25.19 -4.8 23.4 86 -6.9 19.7
22:15 1024 30.24 853 25.19 -4.9 23.2 86 -6.9 19.5
22:20 1024 30.24 853 25.19 -4.9 23.2 86 -6.8 19.7
22:25 1024 30.24 853 25.19 -4.7 23.5 85 -6.9 19.6
22:30 1024 30.24 853 25.19 -4.6 23.6 85 -6.9 19.6
22:35 1024 30.24 853 25.19 -4.7 23.5 84 -7 19.4
22:40 1024 30.24 853 25.19 -4.9 23.2 85 -7.1 19.2
22:45 1024 30.24 853 25.19 -5.2 22.6 85 -7.3 18.8
22:50 1024 30.24 853 25.19 -5.4 22.2 86 -7.4 18.8
22:55 1024 30.24 853 25.19 -5.4 22.2 87 -7.2 19
23:00 1024 30.24 853 25.19 -5.5 22.1 87 -7.3 18.8
23:05 1024 30.24 853 25.19 -5.6 21.9 87 -7.5 18.6
23:10 1024 30.24 853 25.19 -5.7 21.7 87 -7.5 18.5
23:15 1024 30.24 853 25.19 -5.8 21.6 88 -7.5 18.5
23:20 1024 30.24 853 25.19 -5.8 21.6 89 -7.4 18.8
23:25 1024 30.24 853 25.19 -5.7 21.7 89 -7.2 19
23:30 1024 30.24 853 25.19 -5.8 21.6 89 -7.3 18.8
23:35 1024 30.24 853 25.19 -5.8 21.5 88 -7.5 18.6
23:40 1024 30.24 853 25.19 -5.9 21.4 89 -7.5 18.5
23:45 1024 30.24 853 25.19 -6.1 21 89 -7.7 18.2
23:50 1024 30.24 853 25.19 -6.4 20.5 90 -7.8 18
23:55 1024 30.24 853 25.19 -6.2 20.9 91 -7.4 18.7
24:00 1024 30.24 853 25.19 -5.8 21.5 90 -7.2 19